| time (UTC) | temp F | wind direction | speed MPH | gust MPH | rain 1hr in | rain 24hr in | rain mn in | humidity % | barometer mb |
| 20260507153210 | 61 | 306 | 4.0 | 0.0 | 0.00 | 0.00 | 0.04 | 60 | 1013.3 |
| 20260507150210 | 60 | 275 | 4.0 | 0.0 | 0.00 | 0.00 | 0.04 | 62 | 1013.3 |
| 20260507143212 | 60 | 279 | 8.0 | 0.0 | 0.00 | 0.00 | 0.04 | 63 | 1013.4 |
| 20260507140210 | 58 | 329 | 8.0 | 0.0 | 0.00 | 0.00 | 0.04 | 67 | 1013.4 |
| 20260507133210 | 59 | 312 | 7.0 | 0.0 | 0.00 | 0.00 | 0.04 | 68 | 1013.5 |
| 20260507130210 | 57 | 312 | 11.0 | 0.0 | 0.00 | 0.00 | 0.04 | 75 | 1013.4 |
| 20260507123210 | 57 | 319 | 10.0 | 0.0 | 0.00 | 0.00 | 0.04 | 72 | 1013.4 |
| 20260507120211 | 58 | 227 | 6.0 | 0.0 | 0.00 | 0.00 | 0.04 | 70 | 1013.1 |
| 20260507113210 | 56 | 137 | 6.0 | 0.0 | 0.00 | 0.00 | 0.04 | 68 | 1013.4 |
| 20260507110210 | 55 | 227 | 7.0 | 0.0 | 0.00 | 0.00 | 0.04 | 71 | 1013.4 |
| 20260507103216 | 55 | 209 | 8.0 | 0.0 | 0.00 | 0.00 | 0.04 | 73 | 1013.4 |
| 20260507100212 | 54 | 227 | 6.0 | 0.0 | 0.00 | 0.00 | 0.04 | 80 | 1013.4 |
| 20260507093210 | 53 | 140 | 6.0 | 0.0 | 0.00 | 0.00 | 0.04 | 81 | 1013.4 |
| 20260507090211 | 52 | 192 | 10.0 | 0.0 | 0.00 | 0.00 | 0.04 | 83 | 1013.2 |
| 20260507083212 | 51 | 200 | 4.0 | 0.0 | 0.00 | 0.00 | 0.04 | 87 | 1013.0 |
| 20260507080211 | 50 | 189 | 2.0 | 0.0 | 0.00 | 0.00 | 0.04 | 91 | 1013.0 |
| 20260507073212 | 49 | 226 | 4.0 | 0.0 | 0.00 | 0.00 | 0.03 | 91 | 1012.7 |
| 20260507070212 | 49 | 219 | 7.0 | 0.0 | 0.00 | 0.00 | 0.03 | 92 | 1012.5 |
| 20260507063211 | 48 | 190 | 3.0 | 0.0 | 0.00 | 0.00 | 0.02 | 92 | 1012.3 |
| 20260507060211 | 47 | 221 | 5.0 | 0.0 | 0.00 | 0.00 | 0.02 | 91 | 1012.1 |
| 20260507053211 | 47 | 200 | 5.0 | 0.0 | 0.00 | 0.00 | 0.01 | 91 | 1011.8 |
| 20260507050213 | 47 | 191 | 4.0 | 0.0 | 0.00 | 0.00 | 0.01 | 91 | 1011.4 |
| 20260507043211 | 47 | 212 | 6.0 | 0.0 | 0.00 | 0.00 | 0.01 | 90 | 1011.0 |
| 20260507040216 | 47 | 196 | 3.0 | 0.0 | 0.00 | 0.00 | 0.00 | 89 | 1010.7 |
| 20260507033211 | 46 | 232 | 5.0 | 0.0 | 0.00 | 0.00 | 0.00 | 89 | 1010.6 |
| 20260507030211 | 46 | 195 | 2.0 | 0.0 | 0.00 | 0.00 | 0.00 | 89 | 1010.4 |
| 20260507023211 | 46 | 258 | 7.0 | 0.0 | 0.00 | 0.00 | 0.00 | 89 | 1010.2 |
| 20260507020211 | 47 | 207 | 7.0 | 0.0 | 0.00 | 0.00 | 0.00 | 91 | 1010.2 |
| 20260507013212 | 46 | 208 | 5.0 | 0.0 | 0.00 | 0.00 | 0.00 | 92 | 1010.3 |
| 20260507010211 | 45 | 208 | 3.0 | 0.0 | 0.00 | 0.00 | 0.00 | 92 | 1010.2 |
| 20260507003209 | 45 | 187 | 2.0 | 0.0 | 0.00 | 0.00 | 0.00 | 92 | 1010.0 |
| 20260507000209 | 46 | 188 | 3.0 | 0.0 | 0.00 | 0.00 | 0.00 | 92 | 1009.9 |
| 20260506233209 | 46 | 184 | 1.0 | 0.0 | 0.00 | 0.00 | 0.00 | 92 | 1009.9 |
| 20260506230209 | 46 | 223 | 4.0 | 0.0 | 0.00 | 0.00 | 0.00 | 92 | 1009.8 |
| 20260506223209 | 46 | 167 | 4.0 | 0.0 | 0.00 | 0.00 | 0.00 | 91 | 1009.5 |
| 20260506220209 | 47 | 224 | 4.0 | 0.0 | 0.00 | 0.00 | 0.09 | 91 | 1009.2 |
| 20260506213209 | 47 | 180 | 7.0 | 0.0 | 0.00 | 0.00 | 0.09 | 91 | 1009.1 |
| 20260506210210 | 47 | 202 | 6.0 | 0.0 | 0.00 | 0.00 | 0.09 | 90 | 1008.9 |
| 20260506203210 | 48 | 195 | 6.0 | 0.0 | 0.00 | 0.00 | 0.09 | 89 | 1008.9 |
| 20260506200210 | 48 | 227 | 2.0 | 0.0 | 0.00 | 0.00 | 0.09 | 89 | 1008.8 |
| 20260506193215 | 49 | 198 | 3.0 | 0.0 | 0.00 | 0.00 | 0.09 | 90 | 1008.6 |
| 20260506190211 | 49 | 250 | 3.0 | 0.0 | 0.00 | 0.00 | 0.09 | 89 | 1008.2 |
| 20260506183209 | 50 | 157 | 5.0 | 0.0 | 0.00 | 0.00 | 0.09 | 88 | 1007.7 |
| 20260506180216 | 50 | 221 | 3.0 | 0.0 | 0.00 | 0.00 | 0.09 | 87 | 1007.6 |
| 20260506173210 | 50 | 167 | 4.0 | 0.0 | 0.00 | 0.00 | 0.09 | 87 | 1007.4 |
| 20260506170215 | 50 | 213 | 7.0 | 0.0 | 0.00 | 0.00 | 0.09 | 88 | 1006.7 |
| 20260506163210 | 50 | 218 | 7.0 | 0.0 | 0.00 | 0.00 | 0.09 | 87 | 1006.6 |
| 20260506160210 | 50 | 166 | 11.0 | 0.0 | 0.00 | 0.00 | 0.09 | 89 | 1006.7 |